OpenBCM V1.08-5-g2f4a (Linux)

Packet Radio Mailbox

IZ3LSV

[San Dona' di P. JN]

 Login: GUEST





  
CX2SA  > KEP      08.05.20 23:24l 94 Lines 3934 Bytes #999 (0) @ ARL
BID : ARLK037
Read: GUEST
Subj: ARLK037 Keplerian data
Path: IZ3LSV<I0OJJ<I0OJJ<GB7CIP<N7HPX<KC9VYU<N3HYM<CX2SA
Sent: 200508/2214Z @:CX2SA.SAL.URY.SOAM #:30889 [Salto] FBB7.00e $:ARLK037

>From cx2sa%cx2sa.sal.ury.soam@i0ojj.ampr.org Sat May  9 00:20:42 2020
Received: from i0ojj.ampr.org by i0ojj.ampr.org (JNOS2.0n.beta) with SMTP
	id AA110060 ; Sat, 09 May 2020 00:20:42 +0200
Message-Id: <ARLK037@i0ojj.bbs>
>From: cx2sa@cx2sa.sal.ury.soam
X-JNOS-User-Port: Telnet   (i0ojj @ 44.134.32.240)  -> Sending message

From: CX2SA@CX2SA.SAL.URY.SOAM
To  : KEP@ARL


ZCZC SK37
QST de W1AW
Keplerian Bulletin 37  ARLK037
>From ARRL Headquarters
Newington, CT  May 8, 2020
To all radio amateurs

SB KEP ARL ARLK037
ARLK037 Keplerian data

Special thanks to AMSAT-NA (AMSAT.ORG) for the following Keplerian
data.

Decode 2-line elsets with the following key:
1 AAAAAU 00  0  0 BBBBB.BBBBBBBB  .CCCCCCCC  00000-0  00000-0 0  DDDZ
2 AAAAA EEE.EEEE FFF.FFFF GGGGGGG HHH.HHHH III.IIII JJ.JJJJJJJJKKKKKZ
KEY: A-CATALOGNUM B-EPOCHTIME C-DECAY D-ELSETNUM E-INCLINATION F-RAAN
G-ECCENTRICITY H-ARGPERIGEE I-MNANOM J-MNMOTION K-ORBITNUM Z-CHECKSUM

0 AO-07
1 7530U 74089B   20129.18126256 -.00000051  00000-0 -38956-4 0  9991
2 7530 101.7968  99.1524 0012629  81.5938 348.3685 12.53643327 81184
0 FO-29
1 24278U 96046B   20128.86931828 -.00000019 +00000-0 +13917-4 0  9992
2 24278 098.5781 244.0278 0351302 119.8907 243.7621 13.53097740171394
0 ISS
1 25544U 98067A   20129.63563116  .00000642  00000-0  19571-4 0  9994
2 25544  51.6445 184.2257 0001103 257.5815 237.1296 15.49356015225888
0 SO-50
1 27607U 02058C   20129.51862306 -.00000031  00000-0  16290-4 0  9999
2 27607  64.5537 136.4661 0053012 188.0336 171.9924 14.75631689934965
0 CO-55
1 27844U 03031E   20129.26162559 +.00000043 +00000-0 +39168-4 0  9990
2 27844 098.6830 137.6023 0010139 165.0316 195.1163 14.22235823874387
0 RS-22
1 27939U 03042A   20129.34497516  .00000099  00000-0  26275-4 0  9996
2 27939  98.0836 264.7114 0014211 117.9524 242.3136 14.66857058888138
0 RS-30
1 32953U 08025A   20129.47708667  .00000037  00000-0  19437-3 0  9993
2 32953  82.5000 302.7711 0019801 139.4440 220.8119 12.43095479542664
0 KKS-1
1 33499U 09002H   20129.23770206 +.00000084 +00000-0 +20302-4 0  9993
2 33499 098.3218 342.8454 0007829 251.0518 108.9842 14.75527380606656
0 AO-71
1 37854U 11061E   20129.13710297  .00001508  00000-0  83146-4 0  9990
2 37854 101.7001 199.5963 0158789 181.6358 178.4356 15.07187394465858
0 AO-73
1 39444U 13066AE  20128.99056787 +.00000277 +00000-0 +40145-4 0  9998
2 39444 097.5595 131.4733 0059116 044.1693 316.4219 14.82111267347370
0 UKUBE 1
1 40074U 14037F   20129.38995002  .00000330  00000-0  46613-4 0  9990
2 40074  98.4544 315.3425 0003376 246.8716 113.2143 14.84248061315818
0 XW-2A
1 40903U 15049E   20129.43461081  .00001971  00000-0  46610-4 0  9995
2 40903  97.2918 178.3517 0014568  53.5935  71.4186 15.42965181260300
0 XW-2F
1 40910U 15049M   20129.48666369  .00000963  00000-0  50750-4 0  9994
2 40910  97.4683 133.6423 0015872 135.3871 349.9699 15.17877753256278
0 XW-2B
1 40911U 15049N   20129.50022493  .00000450  00000-0  26701-4 0  9992
2 40911  97.4758 131.8344 0014982 144.9452 334.6796 15.16187855256114
0 IO-86
1 40931U 15052B   20128.82399476  .00000447  00000-0 -26996-4 0  9993
2 40931   5.9953 265.2278 0014479  62.2129 297.9476 14.76632221249248
0 CAS-4B
1 42759U 17034B   20129.52960020  .00000243  00000-0  28255-4 0  9995
2 42759  43.0186 246.4046 0009882 143.4499 318.1317 15.09808956159930
0 CAS-4A
1 42761U 17034D   20129.54355455  .00000108  00000-0  20028-4 0  9990
2 42761  43.0182 245.6510 0010201 144.1226 325.1739 15.09886218159932
0 AO-91
1 43017U 17073E   20128.99721633 +.00000287 +00000-0 +27828-4 0  9994
2 43017 097.7245 042.7940 0256977 181.8545 178.1740 14.78899301133189
0 AO-92
1 43137U 18004AC  20129.17194984 +.00000920 +00000-0 +40861-4 0  9992
2 43137 097.4475 200.6023 0008901 186.8808 173.2308 15.24052692128917

Keplerian bulletins are transmitted twice weekly from W1AW.  The
next scheduled transmission of these data will be Tuesday, May 12,
2020, at 2230z on Baudot and BPSK31.
NNNN



Read previous mail | Read next mail


 19.12.2025 04:11:19lGo back Go up